Location: Oshawa
(43.9000°N, 78.8670°W)
Time: 07:31:26
(UTC-04:00)

Transit 2A Rocket - Visible Passes

Search period start: 29 July 2015 00:00
Search period end: 08 August 2015 00:00
Orbit: 590 x 915 km, 66.7° (Epoch: 28 July)

Date Brightness Start Highest point End Pass type
(mag) Time Alt. Az. Time Alt. Az. Time Alt. Az.
29 Jul 8.0 01:23:18 10° NW 01:25:04 11° NNW 01:26:37 10° NNW visible
29 Jul 6.4 21:12:29 10° SSE 21:16:30 20° ESE 21:20:31 10° ENE visible
29 Jul 5.4 22:52:56 10° SW 22:58:48 70° WNW 23:04:13 10° NNE visible
30 Jul 7.8 00:38:56 10° WNW 00:42:23 16° NW 00:45:32 10° N visible
30 Jul 5.1 22:10:46 10° SSW 22:16:37 75° ESE 22:22:05 10° NE visible
30 Jul 7.4 23:55:19 10° W 23:59:48 23° NW 00:03:56 10° N visible
31 Jul 7.9 05:12:55 10° N 05:15:12 13° NNE 05:17:33 10° ENE visible
31 Jul 5.5 21:28:59 10° S 21:34:33 46° ESE 21:39:46 10° NE visible
31 Jul 6.8 23:12:09 10° WSW 23:17:21 33° NW 23:22:09 10° NNE visible
01 Aug 6.1 22:29:21 10° SW 22:35:01 51° NW 22:40:14 10° NNE visible
02 Aug 8.2 00:16:35 10° WNW 00:18:53 12° NNW 00:20:57 10° N visible
02 Aug 7.2 05:30:14 10° NNW 05:34:11 26° NE 05:37:57 10° ESE visible
02 Aug 5.3 21:46:56 10° SW 21:52:47 80° WNW 21:58:12 10° NNE visible
02 Aug 7.9 23:32:30 10° W 23:36:14 17° NW 23:39:39 10° N visible
03 Aug 7.8 04:48:33 10° N 04:51:39 17° NE 04:54:43 10° E visible
03 Aug 5.2 21:04:52 10° SSW 21:10:38 65° ESE 21:16:01 10° NE visible
03 Aug 7.4 22:49:01 10° W 22:53:42 25° NW 22:58:00 10° N visible
04 Aug 8.1 04:07:18 10° N 04:09:01 12° NNE 04:10:50 10° NE visible
04 Aug 6.8 22:05:58 10° WSW 22:11:16 37° NW 22:16:11 10° NNE visible
05 Aug 6.4 05:06:10 10° NNW 05:10:28 36° NE 05:14:32 10° ESE visible
05 Aug 5.9 21:23:16 10° SW 21:28:59 58° NW 21:34:14 10° NNE visible
05 Aug 8.3 23:10:00 10° WNW 23:12:43 13° NW 23:15:11 10° N visible
06 Aug 7.3 04:24:20 10° N 04:28:02 23° NE 04:31:37 10° E visible
06 Aug 7.9 22:26:06 10° W 22:30:06 19° NW 22:33:46 10° N visible
07 Aug 7.8 03:42:45 10° N 03:45:30 15° NE 03:48:13 10° ENE visible
07 Aug 4.5 05:24:15 10° NNW 05:28:52 86° WSW 05:33:11 10° SSE visible
07 Aug 7.4 21:42:44 10° WSW 21:47:35 28° NW 21:52:04 10° NNE visible
